HST
1 20580U 90037B   24136.89540075  .00009329  00000-0  44580-3 0  9995
2 20580  28.4674 201.4170 0002703  54.9499 305.1347 15.17301834672129
ISS (ZARYA)
1 25544U 98067A   24137.32675451  .00020851  00000-0  35451-3 0  9997
2 25544  51.6380 113.3120 0003268 173.0651 328.3848 15.51388706453606
CXO
1 25867U 99040B   24138.77365644  .00000644  00000-0  00000+0 0  9993
2 25867  40.5075 156.6402 8922033 294.4302 359.8066  0.37814091 25609